User: anonymous   Login
Location: Hickory_Viewmont
(35.7830°N, 81.3170°W)
Time: 19:13:02
(UTC-05:00)
Language:

Okean-O - Orbit

View from above orbital plane
View from above orbital plane
View from above satellite
View from above satellite

Ground track
Ground track

The orbit data is extracted from the following two-line orbital elements,

1 25860U 99039A   15027.03001603  .00000618  00000-0  97773-4 0  4772
2 25860 098.0758 355.0285 0001829 090.9722 312.8206 14.75761061835160
Epoch (UTC): 27 January 2015 00:43:13
Eccentricity: 0.0001829
inclination: 98.0758°
perigee height: 641 km
apogee height: 644 km
right ascension of ascending node: 355.0285°
argument of perigee: 90.9722°
revolutions per day: 14.75761061
mean anomaly at epoch: 312.8206°
orbit number at epoch: 83516

The dashed part of the orbit path shows where the satellite is in the earth's shadow,  

DLR